"Period start","avg(HW err(1)/warn(2) (#))","avg(Visibility (m))","avg(Weather code (#))","avg(Precip intensity (mm/h))","min(HW err(1)/warn(2) (#))","max(HW err(1)/warn(2) (#))","std(HW err(1)/warn(2) (#))","med(HW err(1)/warn(2) (#))","min(Visibility (m))","max(Visibility (m))","std(Visibility (m))","med(Visibility (m))","min(Weather code (#))","max(Weather code (#))","std(Weather code (#))","med(Weather code (#))","min(Precip intensity (mm/h))","max(Precip intensity (mm/h))","std(Precip intensity (mm/h))","med(Precip intensity (mm/h))"
2016-04-14 00:00:00,2,29380,0,0.00,2,2,0,2,15509,42983,7647,28260,0,0,0,0,0.00,0.00,0.00,0.00
2016-04-14 00:10:00,2,29037,0,0.00,2,2,0,2,7409,42327,9524,28310,0,0,0,0,0.00,0.00,0.00,0.00
2016-04-14 00:20:00,2,27240,0,0.00,2,2,0,2,20675,35790,4629,25280,0,0,0,0,0.00,0.00,0.00,0.00
2016-04-14 00:30:00,2,19252,0,0.00,2,2,0,2,13163,24336,3252,19046,0,0,0,0,0.00,0.00,0.00,0.00
2016-04-14 00:40:00,2,37464,0,0.00,2,2,0,2,17634,50000,9978,39426,0,0,0,0,0.00,0.00,0.00,0.00
2016-04-14 00:50:00,2,29845,0,0.00,2,2,0,2,14756,43229,9053,31552,0,0,0,0,0.00,0.00,0.00,0.00
2016-04-14 01:00:00,2,25912,0,0.00,2,2,0,2,12085,43500,8860,23842,0,0,0,0,0.00,0.00,0.00,0.00
2016-04-14 01:10:00,2,29793,0,0.00,2,2,0,2,14345,50000,11606,29102,0,0,0,0,0.00,0.00,0.00,0.00
2016-04-14 01:20:00,2,23228,0,0.00,2,2,0,2,15135,37915,7818,21070,0,0,0,0,0.00,0.00,0.00,0.00
2016-04-14 01:30:00,2,27602,0,0.00,2,2,0,2,16681,50000,10222,25402,0,0,0,0,0.00,0.00,0.00,0.00
2016-04-14 01:40:00,2,26839,0,0.00,2,2,0,2,16543,34814,6036,27118,0,0,0,0,0.00,0.00,0.00,0.00
2016-04-14 01:50:00,2,30528,0,0.00,2,2,0,2,22353,49687,7011,30273,0,0,0,0,0.00,0.00,0.00,0.00
2016-04-14 02:00:00,2,29681,0,0.00,2,2,0,2,19346,45089,8244,27686,0,0,0,0,0.00,0.00,0.00,0.00
2016-04-14 02:10:00,2,35874,0,0.00,2,2,0,2,25053,44552,6751,36616,0,0,0,0,0.00,0.00,0.00,0.00
2016-04-14 02:20:00,2,34303,0,0.00,2,2,0,2,23305,48879,6224,33188,0,0,0,0,0.00,0.00,0.00,0.00
2016-04-14 02:30:00,2,30333,0,0.00,2,2,0,2,21424,40022,5588,28478,0,0,0,0,0.00,0.00,0.00,0.00
2016-04-14 02:40:00,2,37365,0,0.00,2,2,0,2,24847,49706,6683,37668,0,0,0,0,0.00,0.00,0.00,0.00
2016-04-14 02:50:00,2,35404,0,0.00,2,2,0,2,17545,50000,10604,38212,0,0,0,0,0.00,0.00,0.00,0.00
2016-04-14 03:00:00,2,32648,0,0.00,2,2,0,2,19584,40921,5540,33570,0,0,0,0,0.00,0.00,0.00,0.00
2016-04-14 03:10:00,2,36735,0,0.00,2,2,0,2,22865,46055,7232,36582,0,0,0,0,0.00,0.00,0.00,0.00
2016-04-14 03:20:00,2,36983,0,0.00,2,2,0,2,20344,50000,10380,38908,0,0,0,0,0.00,0.00,0.00,0.00
2016-04-14 03:30:00,2,26034,0,0.00,2,2,0,2,19484,32633,4165,27702,0,0,0,0,0.00,0.00,0.00,0.00
2016-04-14 03:40:00,2,31144,0,0.00,2,2,0,2,14329,41693,8328,31969,0,0,0,0,0.00,0.00,0.00,0.00
2016-04-14 03:50:00,2,29362,0,0.00,2,2,0,2,14551,48944,10009,27975,0,0,0,0,0.00,0.00,0.00,0.00
2016-04-14 04:00:00,2,41018,0,0.00,2,2,0,2,27554,50000,7395,42338,0,0,0,0,0.00,0.00,0.00,0.00
2016-04-14 04:10:00,2,35189,0,0.00,2,2,0,2,23582,50000,10470,30394,0,0,0,0,0.00,0.00,0.00,0.00
2016-04-14 04:20:00,2,30671,0,0.00,2,2,0,2,18255,43505,7810,31102,0,0,0,0,0.00,0.00,0.00,0.00
2016-04-14 04:30:00,2,44223,0,0.00,2,2,0,2,36956,50000,4188,44409,0,0,0,0,0.00,0.00,0.00,0.00
2016-04-14 04:40:00,2,38181,0,0.00,2,2,0,2,24422,50000,8125,39876,0,0,0,0,0.00,0.00,0.00,0.00
2016-04-14 04:50:00,2,40850,0,0.00,2,2,0,2,28412,50000,6880,41275,0,0,0,0,0.00,0.00,0.00,0.00
2016-04-14 05:00:00,2,34435,0,0.00,2,2,0,2,22030,43984,7204,35172,0,0,0,0,0.00,0.00,0.00,0.00
2016-04-14 05:10:00,2,32607,0,0.00,2,2,0,2,23797,44829,5391,33328,0,0,0,0,0.00,0.00,0.00,0.00
2016-04-14 05:20:00,2,34188,0,0.00,2,2,0,2,28393,43093,4171,33970,0,0,0,0,0.00,0.00,0.00,0.00
2016-04-14 05:30:00,2,34738,0,0.00,2,2,0,2,22643,46650,8973,34782,0,0,0,0,0.00,0.00,0.00,0.00
2016-04-14 05:40:00,1,35240,0,0.00,0,2,1,2,25462,48878,7490,35624,0,0,0,0,0.00,0.00,0.00,0.00
2016-04-14 05:50:00,0,41770,0,0.00,0,0,0,0,29095,50000,6547,43136,0,0,0,0,0.00,0.00,0.00,0.00
2016-04-14 06:00:00,0,43697,0,0.00,0,0,0,0,38284,50000,3701,43481,0,0,0,0,0.00,0.00,0.00,0.00
2016-04-14 06:10:00,0,38981,0,0.00,0,0,0,0,27512,46668,6136,39076,0,0,0,0,0.00,0.00,0.00,0.00
2016-04-14 06:20:00,0,40010,0,0.00,0,0,0,0,31630,50000,5680,38385,0,0,0,0,0.00,0.00,0.00,0.00
2016-04-14 06:30:00,0,40873,0,0.00,0,2,1,0,29257,49651,5414,41012,0,0,0,0,0.00,0.00,0.00,0.00
2016-04-14 06:40:00,2,38608,0,0.00,2,2,0,2,24363,50000,7881,38479,0,0,0,0,0.00,0.00,0.00,0.00
2016-04-14 06:50:00,2,40846,0,0.00,2,2,0,2,26939,50000,7294,42941,0,0,0,0,0.00,0.00,0.00,0.00
2016-04-14 07:00:00,2,37605,0,0.00,2,2,0,2,19035,50000,10824,41650,0,0,0,0,0.00,0.00,0.00,0.00
2016-04-14 07:10:00,2,39638,0,0.00,2,2,0,2,33304,50000,4280,39072,0,0,0,0,0.00,0.00,0.00,0.00
2016-04-14 07:20:00,2,38694,0,0.00,2,2,0,2,28019,50000,7975,37280,0,0,0,0,0.00,0.00,0.00,0.00
2016-04-14 07:30:00,2,38273,0,0.00,2,2,0,2,25626,50000,7294,37850,0,0,0,0,0.00,0.00,0.00,0.00
2016-04-14 07:40:00,2,39451,0,0.00,2,2,0,2,24825,50000,9749,39644,0,0,0,0,0.00,0.00,0.00,0.00
2016-04-14 07:50:00,2,33596,0,0.00,2,2,0,2,21388,49100,9235,34669,0,0,0,0,0.00,0.00,0.00,0.00
2016-04-14 08:00:00,2,33536,0,0.00,2,2,0,2,24836,42005,5414,34742,0,0,0,0,0.00,0.00,0.00,0.00
2016-04-14 08:10:00,2,41214,0,0.00,2,2,0,2,29235,50000,7855,44025,0,0,0,0,0.00,0.00,0.00,0.00
2016-04-14 08:20:00,2,35576,0,0.00,2,2,0,2,24551,44943,6810,35926,0,0,0,0,0.00,0.00,0.00,0.00
2016-04-14 08:30:00,2,39167,0,0.00,2,2,0,2,33565,46212,4543,39289,0,0,0,0,0.00,0.00,0.00,0.00
2016-04-14 08:40:00,2,38773,0,0.00,2,2,0,2,29690,46575,5309,37592,0,0,0,0,0.00,0.00,0.00,0.00
2016-04-14 08:50:00,2,38990,0,0.00,2,2,0,2,25786,46079,6142,39660,0,0,0,0,0.00,0.00,0.00,0.00
2016-04-14 09:00:00,2,44894,0,0.00,2,2,0,2,26794,50000,7097,49070,0,0,0,0,0.00,0.00,0.00,0.00
2016-04-14 09:10:00,2,38702,0,0.00,2,2,0,2,30669,47160,4789,37715,0,0,0,0,0.00,0.00,0.00,0.00
2016-04-14 09:20:00,2,34637,0,0.00,2,2,0,2,24132,49872,8218,33270,0,0,0,0,0.00,0.00,0.00,0.00
2016-04-14 09:30:00,2,40342,0,0.00,2,2,0,2,32900,50000,4837,40188,0,0,0,0,0.00,0.00,0.00,0.00
2016-04-14 09:40:00,2,32279,0,0.00,2,2,0,2,19192,41796,7327,32892,0,0,0,0,0.00,0.00,0.00,0.00
2016-04-14 09:50:00,2,36684,0,0.00,2,2,0,2,28085,46095,5566,36278,0,0,0,0,0.00,0.00,0.00,0.00
2016-04-14 10:00:00,2,31867,0,0.00,2,2,0,2,19593,39953,6801,34860,0,0,0,0,0.00,0.00,0.00,0.00
2016-04-14 10:10:00,2,39332,0,0.00,2,2,0,2,32003,50000,5178,37924,0,0,0,0,0.00,0.00,0.00,0.00
2016-04-14 10:20:00,2,37223,0,0.00,2,2,0,2,30656,44113,4794,37572,0,0,0,0,0.00,0.00,0.00,0.00
2016-04-14 10:30:00,2,42125,0,0.00,2,2,0,2,34383,50000,4376,42798,0,0,0,0,0.00,0.00,0.00,0.00
2016-04-14 10:40:00,2,33342,0,0.00,2,2,0,2,24378,45650,6312,31984,0,0,0,0,0.00,0.00,0.00,0.00
2016-04-14 10:50:00,2,45893,0,0.00,2,2,0,2,41759,50000,2911,45918,0,0,0,0,0.00,0.00,0.00,0.00
2016-04-14 11:00:00,2,43544,0,0.00,2,2,0,2,35537,50000,6063,44432,0,0,0,0,0.00,0.00,0.00,0.00
2016-04-14 11:10:00,2,43124,0,0.00,2,2,0,2,37664,48918,3467,43664,0,0,0,0,0.00,0.00,0.00,0.00
2016-04-14 11:20:00,2,43496,0,0.00,2,2,0,2,39295,47379,2547,43504,0,0,0,0,0.00,0.00,0.00,0.00
2016-04-14 11:30:00,2,40857,0,0.00,2,2,0,2,31432,48959,5104,41046,0,0,0,0,0.00,0.00,0.00,0.00
2016-04-14 11:40:00,2,45855,0,0.00,2,2,0,2,42596,49785,1907,45944,0,0,0,0,0.00,0.00,0.00,0.00
2016-04-14 11:50:00,2,39358,0,0.00,2,2,0,2,33078,45678,4849,39750,0,0,0,0,0.00,0.00,0.00,0.00
2016-04-14 12:00:00,2,46732,0,0.00,2,2,0,2,40884,50000,3005,47743,0,0,0,0,0.00,0.00,0.00,0.00
2016-04-14 12:10:00,2,47586,0,0.00,2,2,0,2,41029,50000,2906,48830,0,0,0,0,0.00,0.00,0.00,0.00
2016-04-14 12:20:00,2,44471,0,0.00,2,2,0,2,38990,49419,3436,44838,0,0,0,0,0.00,0.00,0.00,0.00
2016-04-14 12:30:00,2,41457,0,0.00,2,2,0,2,31988,50000,5834,41160,0,0,0,0,0.00,0.00,0.00,0.00
2016-04-14 12:40:00,2,41876,0,0.00,2,2,0,2,39042,44127,1535,42321,0,0,0,0,0.00,0.00,0.00,0.00
2016-04-14 12:50:00,2,46011,0,0.00,2,2,0,2,40005,50000,3890,46912,0,0,0,0,0.00,0.00,0.00,0.00
2016-04-14 13:00:00,2,44731,0,0.00,2,2,0,2,36958,50000,4536,45124,0,0,0,0,0.00,0.00,0.00,0.00
2016-04-14 13:10:00,2,47836,0,0.00,2,2,0,2,41414,50000,3142,49426,0,0,0,0,0.00,0.00,0.00,0.00
2016-04-14 13:20:00,2,45156,0,0.00,2,2,0,2,37099,50000,3806,45854,0,0,0,0,0.00,0.00,0.00,0.00
2016-04-14 13:30:00,2,49326,0,0.00,2,2,0,2,46126,50000,1253,50000,0,0,0,0,0.00,0.00,0.00,0.00
2016-04-14 13:40:00,2,48970,0,0.00,2,2,0,2,44398,50000,1776,50000,0,0,0,0,0.00,0.00,0.00,0.00
2016-04-14 13:50:00,2,49821,0,0.00,2,2,0,2,49241,50000,224,49889,0,0,0,0,0.00,0.00,0.00,0.00
2016-04-14 14:00:00,2,48034,0,0.00,2,2,0,2,43608,50000,1962,48390,0,0,0,0,0.00,0.00,0.00,0.00
2016-04-14 14:10:00,2,47732,0,0.00,2,2,0,2,43871,50000,2232,47799,0,0,0,0,0.00,0.00,0.00,0.00
2016-04-14 14:20:00,2,46036,0,0.00,2,2,0,2,40617,50000,3416,46600,0,0,0,0,0.00,0.00,0.00,0.00
2016-04-14 14:30:00,2,43297,0,0.00,2,2,0,2,39970,48293,2852,42270,0,0,0,0,0.00,0.00,0.00,0.00
2016-04-14 14:40:00,2,46135,0,0.00,2,2,0,2,42262,49477,2447,46409,0,0,0,0,0.00,0.00,0.00,0.00
2016-04-14 14:50:00,2,48882,0,0.00,2,2,0,2,42915,50000,2251,50000,0,0,0,0,0.00,0.00,0.00,0.00
2016-04-14 15:00:00,2,46458,0,0.00,2,2,0,2,42001,50000,2633,47536,0,0,0,0,0.00,0.00,0.00,0.00
2016-04-14 15:10:00,2,45168,0,0.00,2,2,0,2,40036,50000,3704,45854,0,0,0,0,0.00,0.00,0.00,0.00
2016-04-14 15:20:00,2,47892,0,0.00,2,2,0,2,44383,50000,1851,48234,0,0,0,0,0.00,0.00,0.00,0.00
2016-04-14 15:30:00,2,43741,0,0.00,2,2,0,2,35905,50000,4980,43019,0,0,0,0,0.00,0.00,0.00,0.00
2016-04-14 15:40:00,2,45440,0,0.00,2,2,0,2,38872,50000,3938,46478,0,0,0,0,0.00,0.00,0.00,0.00
2016-04-14 15:50:00,2,48240,0,0.00,2,2,0,2,43545,50000,2158,49342,0,0,0,0,0.00,0.00,0.00,0.00
2016-04-14 16:00:00,2,46660,0,0.00,2,2,0,2,42540,50000,2992,47374,0,0,0,0,0.00,0.00,0.00,0.00
2016-04-14 16:10:00,2,49903,0,0.00,2,2,0,2,49034,50000,290,50000,0,0,0,0,0.00,0.00,0.00,0.00
2016-04-14 16:20:00,2,42930,0,0.00,2,2,0,2,31770,50000,6646,43680,0,0,0,0,0.00,0.00,0.00,0.00
2016-04-14 16:30:00,2,35014,0,0.00,2,2,0,2,31587,40309,2748,34714,0,0,0,0,0.00,0.00,0.00,0.00
2016-04-14 16:40:00,2,41343,0,0.00,2,2,0,2,31501,47219,4771,41476,0,0,0,0,0.00,0.00,0.00,0.00
2016-04-14 16:50:00,2,43330,0,0.00,2,2,0,2,35274,49838,4464,44604,0,0,0,0,0.00,0.00,0.00,0.00
2016-04-14 17:00:00,2,39912,0,0.00,2,2,0,2,35151,44051,2089,39736,0,0,0,0,0.00,0.00,0.00,0.00
2016-04-14 17:10:00,2,47743,0,0.00,2,2,0,2,45319,50000,1691,47294,0,0,0,0,0.00,0.00,0.00,0.00
2016-04-14 17:20:00,2,50000,0,0.00,2,2,0,2,50000,50000,0,50000,0,0,0,0,0.00,0.00,0.00,0.00
2016-04-14 17:30:00,2,50000,0,0.00,2,2,0,2,50000,50000,0,50000,0,0,0,0,0.00,0.00,0.00,0.00
2016-04-14 17:40:00,2,49810,0,0.00,2,2,0,2,48096,50000,571,50000,0,0,0,0,0.00,0.00,0.00,0.00
2016-04-14 17:50:00,2,47634,0,0.00,2,2,0,2,41877,50000,2932,49173,0,0,0,0,0.00,0.00,0.00,0.00
2016-04-14 18:00:00,2,49957,0,0.00,2,2,0,2,49572,50000,128,50000,0,0,0,0,0.00,0.00,0.00,0.00
2016-04-14 18:10:00,2,49567,0,0.00,2,2,0,2,47262,50000,863,50000,0,0,0,0,0.00,0.00,0.00,0.00
2016-04-14 18:20:00,2,49705,0,0.00,2,2,0,2,47698,50000,696,50000,0,0,0,0,0.00,0.00,0.00,0.00
2016-04-14 18:30:00,2,46412,0,0.00,2,2,0,2,43514,50000,2271,46226,0,0,0,0,0.00,0.00,0.00,0.00
2016-04-14 18:40:00,2,48993,0,0.00,2,2,0,2,46032,50000,1522,50000,0,0,0,0,0.00,0.00,0.00,0.00
2016-04-14 18:50:00,2,49989,0,0.00,2,2,0,2,49888,50000,34,50000,0,0,0,0,0.00,0.00,0.00,0.00
2016-04-14 19:00:00,2,49287,0,0.00,2,2,0,2,44337,50000,1707,50000,0,0,0,0,0.00,0.00,0.00,0.00
2016-04-14 19:10:00,2,49834,0,0.00,2,2,0,2,48612,50000,415,50000,0,0,0,0,0.00,0.00,0.00,0.00
2016-04-14 19:20:00,2,50000,0,0.00,2,2,0,2,50000,50000,0,50000,0,0,0,0,0.00,0.00,0.00,0.00
2016-04-14 19:30:00,2,50000,0,0.00,2,2,0,2,50000,50000,0,50000,0,0,0,0,0.00,0.00,0.00,0.00
2016-04-14 19:40:00,2,49953,0,0.00,2,2,0,2,49682,50000,101,50000,0,0,0,0,0.00,0.00,0.00,0.00
2016-04-14 19:50:00,2,49206,0,0.00,2,2,0,2,44828,50000,1572,50000,0,0,0,0,0.00,0.00,0.00,0.00
2016-04-14 20:00:00,2,37146,0,0.00,2,2,0,2,18012,50000,10271,39347,0,0,0,0,0.00,0.00,0.00,0.00
2016-04-14 20:10:00,2,45579,0,0.00,2,2,0,2,38473,50000,4345,47027,0,0,0,0,0.00,0.00,0.00,0.00
2016-04-14 20:20:00,2,48108,0,0.00,2,2,0,2,44329,50000,1889,48153,0,0,0,0,0.00,0.00,0.00,0.00
2016-04-14 20:30:00,2,47087,0,0.00,2,2,0,2,38283,50000,4579,49732,0,0,0,0,0.00,0.00,0.00,0.00
2016-04-14 20:40:00,2,45499,0,0.00,2,2,0,2,36605,50000,3891,46511,0,0,0,0,0.00,0.00,0.00,0.00
2016-04-14 20:50:00,2,39221,0,0.00,2,2,0,2,32317,48506,4644,39382,0,0,0,0,0.00,0.00,0.00,0.00
2016-04-14 21:00:00,2,36268,0,0.00,2,2,0,2,27346,42351,4335,37268,0,0,0,0,0.00,0.00,0.00,0.00
2016-04-14 21:10:00,2,38989,0,0.00,2,2,0,2,29216,46955,4820,39418,0,0,0,0,0.00,0.00,0.00,0.00
2016-04-14 21:20:00,2,38717,0,0.00,2,2,0,2,30965,48396,6036,39300,0,0,0,0,0.00,0.00,0.00,0.00
2016-04-14 21:30:00,2,38681,0,0.00,2,2,0,2,25348,49482,6988,38341,0,0,0,0,0.00,0.00,0.00,0.00
2016-04-14 21:40:00,2,39890,0,0.00,2,2,0,2,19525,50000,8956,43191,0,0,0,0,0.00,0.00,0.00,0.00
2016-04-14 21:50:00,2,33865,0,0.00,2,2,0,2,10311,49353,10820,37526,0,0,0,0,0.00,0.00,0.00,0.00
2016-04-14 22:00:00,2,37986,0,0.00,2,2,0,2,32927,47354,4095,37826,0,0,0,0,0.00,0.00,0.00,0.00
2016-04-14 22:10:00,2,41412,0,0.00,2,2,0,2,35726,47700,3879,41541,0,0,0,0,0.00,0.00,0.00,0.00
2016-04-14 22:20:00,2,37002,0,0.00,2,2,0,2,25647,47740,6116,37852,0,0,0,0,0.00,0.00,0.00,0.00
2016-04-14 22:30:00,2,33445,0,0.00,2,2,0,2,23675,45031,7021,30922,0,0,0,0,0.00,0.00,0.00,0.00
2016-04-14 22:40:00,2,43795,0,0.00,2,2,0,2,36009,50000,4296,44039,0,0,0,0,0.00,0.00,0.00,0.00
2016-04-14 22:50:00,2,38736,0,0.00,2,2,0,2,20880,50000,10892,43404,0,0,0,0,0.00,0.00,0.00,0.00
2016-04-14 23:00:00,2,36508,0,0.00,2,2,0,2,27864,50000,5566,35356,0,0,0,0,0.00,0.00,0.00,0.00
2016-04-14 23:10:00,2,39297,0,0.00,2,2,0,2,27743,50000,8100,39079,0,0,0,0,0.00,0.00,0.00,0.00
2016-04-14 23:20:00,2,31894,0,0.00,2,2,0,2,12486,41850,8740,35343,0,0,0,0,0.00,0.00,0.00,0.00
2016-04-14 23:30:00,2,39959,0,0.00,2,2,0,2,27991,50000,6699,39955,0,0,0,0,0.00,0.00,0.00,0.00
2016-04-14 23:40:00,2,28526,0,0.00,2,2,0,2,23044,36098,4310,28817,0,0,0,0,0.00,0.00,0.00,0.00
2016-04-14 23:50:00,2,42583,0,0.00,2,2,0,2,25487,50000,8011,44399,0,0,0,0,0.00,0.00,0.00,0.00
